Location: Newark
(49.0903°N, 0.8053°W)
Time: 02:49:15
(UTC+00:00)

Envisat - Visible Passes

Search period start: 30 September 2020 00:00
Search period end: 10 October 2020 00:00
Orbit: 764 x 766 km, 98.1° (Epoch: 29 September)

Date Brightness Start Highest point End Pass type
(mag) Time Alt. Az. Time Alt. Az. Time Alt. Az.
30 Sep 5.3 05:23:59 10° NNE 05:28:27 30° E 05:32:53 10° SSE visible
30 Sep 6.0 18:22:49 10° SW 18:26:41 22° W 18:30:33 10° NW visible
01 Oct 6.2 04:48:21 10° NE 04:51:14 15° E 04:54:06 10° ESE visible
02 Oct 6.4 18:50:08 10° WSW 18:52:27 13° W 18:54:46 10° WNW visible
03 Oct 5.7 05:12:50 10° NE 05:16:59 25° E 05:21:05 10° SSE visible
03 Oct 5.6 18:10:57 10° SSW 18:15:12 26° W 18:19:28 10° NW visible
04 Oct 6.5 04:37:48 10° ENE 04:39:42 12° E 04:41:35 10° ESE visible
05 Oct 6.2 18:37:47 10° SW 18:40:55 16° W 18:44:05 10° NW visible
06 Oct 6.0 05:01:47 10° NE 05:05:30 20° E 05:09:11 10° SE visible
06 Oct 5.2 17:59:12 10° SSW 18:03:44 32° W 18:08:18 10° NNW visible
08 Oct 5.1 05:26:36 10° NNE 05:31:11 32° E 05:35:43 10° SSE visible
08 Oct 6.0 18:25:43 10° SW 18:29:25 20° W 18:33:08 10° NW visible
09 Oct 6.2 04:50:51 10° NE 04:53:59 16° E 04:57:07 10° SE visible
